Content
SEND FEEDBACK

Daily
Averages
Monthly
Summary
United States of America

YIGO, GUAM


Home > North America > United States > Guam
Elevation: 530 feet     Latitude: 13 32N     Longitude: 144 53E

WEATHER
 
SELECT A DAY
Number of Records: 209,106;   Date Range: 1/1/95 - 8/12/14
 
SHARE

PRINT THIS DATA

[ ← Previous Day ]
WEATHER ALMANAC - APRIL 19, 2014
[ Next Day → ]
[ °C ]   °F
Weather ElementAverageHighLow
Temperature83.2 °F87.8 °F (12:14 pm)80.1 °F (3:54 am)
Dewpoint77.9 °F79 °F (7:54 am)75 °F (10:54 am)
Humidity84.4 %94 % (2:52 am)70 % (1:14 pm)
Barometer29.78 in29.83 in (8:03 am)29.73 in (2:54 pm)
Wind Speed9.8 mph16.1 mph (9:54 am)
Wind Gust24.2 mph (2:18 pm)
Weather ElementAverage
Visibility9.9 mi
Wind DirectionESE (106.2 °)

Weather ElementTotal
Precipitation0.06 in
Cooling Degree Days19 (Base 65)
Growing Degree Days34 (Base 50)
Averaged from 47 records on April 19, 2014
WEATHER CONDITIONS BREAKOUT
WIND DIRECTION BREAKOUT
WEATHER BY HOUR - APRIL 19, 2014
[ °C ]   °F
Local TimeTemperatureDewpointHumidityBarometerVisibilityWind DirectionWind SpeedGust SpeedPrecipitationEventsConditions
1:54 AM81.0 °F78.1 °F91 %29.77 in10.0 miEast (80°)8.1 mph0.00 inScattered Clouds
2:52 AM80.6 °F78.8 °F94 %29.78 in10.0 miEast (90°)8.1 mphMostly Cloudy
2:54 AM81.0 °F78.1 °F91 %29.76 in10.0 miEast (80°)5.8 mphMostly Cloudy
3:22 AM80.6 °F77.0 °F89 %29.78 in10.0 miEast (90°)8.1 mph0.00 inMostly Cloudy
3:54 AM80.1 °F78.1 °F94 %29.75 in10.0 miEast (90°)6.9 mph0.00 inScattered Clouds
4:15 AM80.6 °F78.8 °F94 %29.78 in10.0 miEast (100°)9.2 mphMostly Cloudy
4:23 AM80.6 °F78.8 °F94 %29.78 in10.0 miEast (90°)6.9 mphScattered Clouds
4:54 AM81.0 °F77.0 °F88 %29.76 in10.0 miEast (100°)6.9 mphPartly Cloudy
5:22 AM80.6 °F78.8 °F94 %29.79 in10.0 miEast (80°)6.9 mphMostly Cloudy
5:45 AM80.6 °F77.0 °F89 %29.78 in8.0 miEast (80°)9.2 mph0.01 inRainLight Rain
5:54 AM80.1 °F77.0 °F90 %29.76 in10.0 miEast (80°)6.9 mph0.01 inScattered Clouds
6:54 AM81.0 °F78.1 °F91 %29.78 in10.0 miEast (80°)8.1 mphScattered Clouds
7:07 AM80.6 °F78.8 °F94 %29.81 in10.0 miEast (80°)9.2 mphMostly Cloudy
7:19 AM82.4 °F78.8 °F89 %29.81 in10.0 miEast (90°)9.2 mphPartly Cloudy
7:54 AM82.9 °F79.0 °F88 %29.81 in10.0 miEast (90°)8.1 mphScattered Clouds
8:03 AM82.4 °F78.8 °F89 %29.83 in10.0 miEast (80°)12.7 mphMostly Cloudy
8:54 AM84.0 °F79.0 °F85 %29.81 in10.0 miEast (90°)15.0 mph20.7 mph0.00 inOvercast
9:01 AM84.2 °F78.8 °F84 %29.83 in10.0 miEast (80°)13.8 mph20.7 mphMostly Cloudy
9:31 AM84.2 °F78.8 °F84 %29.83 in10.0 miEast (100°)11.5 mphMostly Cloudy
9:54 AM84.9 °F77.0 °F77 %29.80 in10.0 miEast (90°)16.1 mph21.9 mphMostly Cloudy
10:54 AM81.0 °F75.0 °F82 %29.79 in5.0 miESE (120°)10.4 mph20.7 mph0.00 inRainRain
11:09 AM84.2 °F78.8 °F84 %29.81 in10.0 miESE (110°)15.0 mph21.9 mph0.00 inMostly Cloudy
11:54 AM87.1 °F78.1 °F74 %29.78 in10.0 miEast (100°)13.8 mph20.7 mph0.00 inPartly Cloudy
12:14 PM87.8 °F78.8 °F75 %29.79 in10.0 miESE (110°)15.0 mph23.0 mphMostly Cloudy
12:25 PM87.8 °F78.8 °F75 %29.79 in10.0 miESE (110°)11.5 mph21.9 mphScattered Clouds
12:54 PM87.1 °F77.0 °F72 %29.76 in10.0 miESE (120°)13.8 mph21.9 mphScattered Clouds
1:14 PM87.8 °F77.0 °F70 %29.77 in10.0 miEast (100°)13.8 mphMostly Cloudy
1:54 PM87.1 °F78.1 °F74 %29.74 in10.0 miSE (130°)11.5 mph20.7 mphMostly Cloudy
2:18 PM87.8 °F77.0 °F70 %29.74 in10.0 miEast (100°)13.8 mph24.2 mphScattered Clouds
2:30 PM87.8 °F78.8 °F75 %29.75 in10.0 miESE (110°)12.7 mph21.9 mphMostly Cloudy
2:54 PM86.0 °F78.1 °F77 %29.73 in10.0 miEast (100°)15.0 mph20.7 mphMostly Cloudy
3:21 PM87.8 °F78.8 °F75 %29.75 in10.0 miESE (120°)12.7 mph20.7 mphScattered Clouds
3:54 PM82.0 °F79.0 °F90 %29.73 in10.0 miSE (140°)6.9 mph0.04 inScattered Clouds
4:37 PM84.2 °F78.8 °F84 %29.75 in10.0 miESE (120°)8.1 mph18.4 mphMostly Cloudy
4:54 PM84.0 °F78.1 °F82 %29.73 in10.0 miESE (120°)11.5 mph16.1 mphScattered Clouds
5:54 PM82.9 °F77.0 °F82 %29.74 in10.0 miESE (120°)8.1 mphPartly Cloudy
6:54 PM82.0 °F77.0 °F85 %29.76 in10.0 miESE (120°)8.1 mphScattered Clouds
7:39 PM82.4 °F77.0 °F84 %29.80 in10.0 miESE (120°)8.1 mphMostly Cloudy
7:54 PM82.0 °F77.0 °F85 %29.78 in10.0 miSE (130°)8.1 mphMostly Cloudy
8:10 PM82.4 °F77.0 °F84 %29.81 in10.0 miSE (140°)8.1 mphScattered Clouds
8:19 PM82.4 °F77.0 °F84 %29.81 in10.0 miSE (130°)6.9 mphMostly Cloudy
8:29 PM82.4 °F77.0 °F84 %29.82 in10.0 miSE (130°)5.8 mphPartly Cloudy
8:54 PM82.0 °F77.0 °F85 %29.80 in10.0 miSE (130°)6.9 mphClear
9:54 PM81.0 °F77.0 °F88 %29.81 in10.0 miSE (130°)5.8 mphMostly Cloudy
10:47 PM82.4 °F77.0 °F84 %29.83 in10.0 miSE (130°)8.1 mphMostly Cloudy
10:54 PM82.0 °F77.0 °F85 %29.80 in10.0 miSE (130°)6.9 mphScattered Clouds
11:54 PM82.0 °F78.1 °F88 %29.80 in10.0 miSE (130°)8.1 mphPartly Cloudy
Hourly data recorded from PGUM, located miles away from Yigo, Guam







STORIES FROM OUR PARTNERS